India Forums Logo

Hum ne li hai... Shapath

India Forums > Forum Index > Hum ne li hai... Shapath
Hum ne li hai... Shapath is a story of tough cops against the flawed system with thrilling and contemporary police cases weaved in.
<< | 1 | 2 | 3 | 4 | 5 | 6 | 7 | 8 | 9 | 10 | 11 | 12 | 13 | ... >>
TIDTopic SubjectStart DateLast Entry
279543719/02/2012 WU: Sabut Pe Sabut, Khulli Kisi Ki Pol2/19/2012 2:51:45 PM2/20/2012 7:49:03 AM
2795881Shikha's Dad!!2/20/2012 4:00:51 AM2/20/2012 7:58:52 AM
2796001Who killed Radhika??2/20/2012 5:32:54 AM2/21/2012 6:18:24 AM
2796627The Duo2/20/2012 10:49:31 AM2/21/2012 3:18:38 AM
2796694Why always wear the caps?2/20/2012 11:28:00 AM2/21/2012 10:20:16 AM
279692320thFeb-HQ Hum Ne Li Hai Shapth-Video+Precap WO/DL2/20/2012 3:17:42 PM2/21/2012 10:13:38 AM
279693820/02/2012 WU: Khule Kafi Raaz2/20/2012 3:48:17 PM2/21/2012 10:12:07 AM
2797477*~!!HNLHS Chit Chat Corner!!~*#82/21/2012 3:09:19 AM2/25/2012 4:06:46 AM
2797721new spoiler2/21/2012 6:43:28 AM2/21/2012 10:11:37 AM
2798106Revealed!!!2/21/2012 10:11:42 AM2/21/2012 12:31:36 PM
279816321/02/2012 WU: Khooni Ka Raaz Khulla2/21/2012 10:41:11 AM2/21/2012 4:42:01 PM
279877421stFeb-HQ Hum Ne Li Hai Shapth-Video+Precap WO/DL2/21/2012 11:27:44 PM2/22/2012 2:31:11 AM
279877821st Feb--Zindagi Kahe EHQ Video+Precap WO/DL/Pics2/21/2012 11:28:45 PM2/21/2012 11:34:34 PM
2799027**||HNLHS:TRP Thread(New Trp pg 7)||**2/22/2012 2:37:41 AM7/9/2012 2:18:16 PM
2799158TB:Sachin Verma To Enter Shapath2/22/2012 4:28:24 AM2/23/2012 11:22:44 AM
2799744Bas case khatam?2/22/2012 10:12:37 AM2/23/2012 12:01:05 AM
2799902**||~HNLHS:WU:22-02-12~||**2/22/2012 11:29:11 AM2/22/2012 12:38:00 PM
2799989Tauba tera jalwa...Tera Emotional Atyachar2/22/2012 12:29:46 PM2/24/2012 3:32:44 AM
280043622nd Feb-HQ Hum Ne Li Hai Shapth-Video+Precap WO/D2/23/2012 1:05:45 AM2/23/2012 11:11:25 AM
280134823rd Feb-HQ Hum Ne Li Hai Shapth-Video+Precap WO/2/23/2012 12:11:50 PM2/23/2012 9:05:29 PM
2801371**||~HNLHS:WU:23-02-12~||**2/23/2012 12:31:43 PM2/23/2012 10:01:00 PM
2801664*~HNLHS SBS Segment-Request Here~*2/23/2012 9:45:37 PM2/24/2012 9:00:34 AM
2801877Sapna Thakur joins Shappat!2/24/2012 2:44:09 AM2/25/2012 4:09:44 AM
2802080GOTW/DOTW Sign-up Sheet (March)2/24/2012 6:42:19 AM2/24/2012 11:40:38 AM
2802233*~!!HNLHS Chit Chat Corner!!~*#92/24/2012 8:29:58 AM3/4/2012 3:43:44 AM
2802403Silly topic: New case - 1st Murder2/24/2012 10:12:25 AM2/25/2012 8:18:23 AM
2802424What Gautam Wanted To Say?2/24/2012 10:26:15 AM2/27/2012 2:21:38 AM
2802596**||~HNLHS:WU:24-02-12~||**2/24/2012 12:34:43 PM2/25/2012 2:43:14 AM
280342125th Feb episode: My silly comments2/25/2012 10:09:58 AM2/25/2012 12:00:59 PM
2803452gautam n shikha !!2/25/2012 11:00:20 AM2/26/2012 4:04:53 AM
2803476COTW:Guess The Movie N Winners2/25/2012 11:19:35 AM2/26/2012 9:37:17 AM
2803514**||~HNLHS:WU:25-02-12~||**2/25/2012 11:51:33 AM2/26/2012 1:57:37 AM
2803530*~Shapathian Of The Week#3~*-Closed2/25/2012 12:32:35 PM3/1/2012 9:29:10 PM
2803739Hasan Zaidi bags Shilpa and Raj Kundra's Dhishkyao2/25/2012 10:18:16 PM2/26/2012 11:05:57 AM
280382724+25 Feb-HQ Hum Ne Li Hai Shapth-Video+Precap WO2/26/2012 12:09:43 AM2/26/2012 10:54:06 AM
2804265amazing episode for gautam n shikha fans!!2/26/2012 10:13:47 AM2/26/2012 11:18:28 PM
2804268Iss angle mein hai tri-angle2/26/2012 10:16:03 AM2/26/2012 10:24:28 AM
280428602/26/2012 WU: Gol Gol Ghumte Raho2/26/2012 10:46:38 AM2/27/2012 6:06:53 AM
280453826Feb-HQ Hum Ne Li Hai Shapth-Video+Precap WO/DL2/26/2012 8:37:25 PM2/26/2012 8:37:25 PM
2804576*~GOTW:Instant Reactions~*2/26/2012 10:15:16 PM3/4/2012 4:03:57 AM
2804621Does Abhigyaan Loves Shikha?2/26/2012 11:25:51 PM3/13/2012 1:40:44 AM
2804624How did Anand cum bak???2/26/2012 11:31:43 PM2/27/2012 9:01:39 AM
2804818Interesting Day by Day...2/27/2012 3:28:20 AM2/27/2012 6:12:08 AM
2804995DOTW: Love and Jealousy2/27/2012 6:03:42 AM2/27/2012 8:37:35 AM
2805442Daddyji chott gaye ji!!! Kaise?2/27/2012 10:13:59 AM2/29/2012 7:34:02 PM
2805474Poem : Inspector Gautam2/27/2012 10:34:09 AM3/3/2012 6:59:35 AM
2805506abhi loves shikha!!!!!!2/27/2012 10:49:50 AM3/12/2012 1:59:25 AM
280556702/27/2012 WU: Jairaj Out, Gautam Shocked2/27/2012 11:20:37 AM2/27/2012 12:00:18 PM
2805678*~HNLHS Promotional Siggy Contest~* Voting Round2/27/2012 12:43:18 PM3/6/2012 5:01:52 AM
2805750Gautam/Abhigyan2/27/2012 2:33:37 PM3/22/2012 8:16:13 AM
2805991Abhi's luv (a funny thought)2/27/2012 10:12:59 PM2/28/2012 2:34:04 AM
280610227Feb-HQ Hum Ne Li Hai Shapth-Video+Precap WO/DL2/28/2012 12:05:29 AM2/28/2012 5:44:18 AM
2806218Anand Analysis2/28/2012 2:09:51 AM3/1/2012 2:09:40 AM
2807286how was 2days episode??2/28/2012 10:15:05 AM2/28/2012 10:19:46 AM
280734602/28/2012 WU: Contract Killer Kaun Hai????2/28/2012 10:39:22 AM2/28/2012 11:55:25 AM
2808685Check The CM Ranking2/29/2012 12:00:30 AM3/1/2012 11:49:31 AM
2809556Repeat timing2/29/2012 6:53:35 AM2/29/2012 7:35:47 AM
2810258Gautam Shikha2/29/2012 10:25:23 AM2/29/2012 12:18:46 PM
2810485**||~HNLHS:WU:29-02-12~||**2/29/2012 11:56:04 AM3/1/2012 1:22:02 AM
2814173Awww!3/1/2012 10:10:37 AM3/2/2012 6:01:53 AM
2814188Oye Hoye3/1/2012 10:15:01 AM3/2/2012 7:14:50 AM
2814509**||~HNLHS:WU:1-03-12~||**3/1/2012 11:51:59 AM3/2/2012 5:59:28 AM
2816820i want a holi celebratin in shapat..3/2/2012 3:18:38 AM3/3/2012 12:43:25 AM
2817514Where is banner>3/2/2012 7:18:50 AM3/2/2012 7:25:36 PM
2818215Its The Time For Real Dhinka Chika3/2/2012 10:10:33 AM3/2/2012 11:40:04 AM
2818219aaa - ijhare Mohobbat!3/2/2012 10:11:37 AM3/2/2012 11:44:12 AM
2818245Gautam Kidnapped!!!3/2/2012 10:16:55 AM3/2/2012 10:35:56 AM
281829528+29th Feb+1st HumNe Li Hai Shapth-Video+Precap3/2/2012 10:29:09 AM3/2/2012 11:49:49 AM
2818328love u abhi!!3/2/2012 10:38:27 AM3/3/2012 12:10:15 AM
2818458Topic Closed3/2/2012 11:16:31 AM3/2/2012 11:23:06 AM
2818701**||~HNLHS:WU:2-03-12~||**3/2/2012 12:41:49 PM3/3/2012 12:12:23 AM
28207412nd Mar HumNe Li Hai Shapth-Video+Precap WO/DL3/3/2012 3:11:12 AM3/3/2012 11:04:08 AM
2821078*~!!HNLHS Chit Chat Corner!!~*#103/3/2012 5:13:58 AM3/12/2012 3:04:15 AM
2821881They edited Abhi's dialogue!3/3/2012 10:13:12 AM3/3/2012 11:29:37 AM
2822204COTW#5:Guess The Movie N Winners3/3/2012 12:04:01 PM3/8/2012 8:25:02 AM
<< | 1 | 2 | 3 | 4 | 5 | 6 | 7 | 8 | 9 | 10 | 11 | 12 | 13 | ... >>